Regional Weather Roundup
Issued by NWS Columbia, SC

Home | Current Version | Previous Version | Text Only | Print | Product List | Glossary On
Versions: 1 2 3 4 5 6 7 8 9 10 11 12 13 14 15 16 17 18 19 20 21 22 23 24 25 26 27 28 29 30 31 32 33 34 35 36 37 38 39 40 41 42 43 44 45 46 47 48 49 50
000
ASUS42 KCAE 300510
RWRCAE
REGIONAL WEATHER ROUNDUP
NATIONAL WEATHER SERVICE COLUMBIA SC
100 AM EDT SAT MAY 30 2015

NOTE: "FAIR" INDICATES FEW OR NO CLOUDS BELOW 12,000 FEET WITH NO
SIGNIFICANT WEATHER AND/OR OBSTRUCTIONS TO VISIBILITY.

NOT ALL STATIONS ARE QUALITY CONTROLLED BY THE NATIONAL
WEATHER SERVICE. USE DATA WITH CAUTION...ESPECIALLY
DEWPOINT OBSERVATIONS.

SCZ001>056-GAZ040-063>065-077-300600-
...UPSTATE SOUTH CAROLINA...

CITY           SKY/WX    TMP DP  RH WIND       PRES   REMARKS
ANDERSON       PTCLDY    69  62  78 SE7       30.18S
LIBERTY        PTCLDY   N/A N/A N/A CALM      30.18F
SPARTANBURG    CLEAR     72  63  73 CALM      30.18F
CLEMSON        PTCLDY    70  65  84 CALM      30.19S
GREENVILLE     PTCLDY    72  59  63 CALM      30.20S
GREENWOOD      PTCLDY    69  63  81 CALM      30.19S
GREER          PTCLDY    67  62  84 CALM      30.18S
ROCK HILL      CLEAR     67  61  81 CALM      30.19F
CHESTER        CLEAR     72  61  68 S5        30.19F
LAURENS        CLEAR     68  68 100 S5        30.18F


...CENTRAL SOUTH CAROLINA...

CITY           SKY/WX    TMP DP  RH WIND       PRES   REMARKS
COLUMBIA APT   PTCLDY    73  64  73 CALM      30.17F
COLUMBIA OWENS CLEAR     73  65  75 CALM      30.19S
DARLINGTON     PTCLDY    72  63  73 SE6       30.20F
FLORENCE       CLEAR     70  66  87 CALM      30.18F
MCENTIRE ANGB  CLEAR     68  65  91 E3        30.18F
ORANGEBURG     CLEAR     71  65  81 E3        30.18F
SUMTER SHAW    CLEAR     70  67  89 S2        30.16F
AIKEN          FAIR      68  61  77 SE5       30.21F
BARNWELL       FAIR      72  66  83 E3        30.17F
MANNING        FAIR      64  61  88 CALM      30.18S
CAMDEN         FAIR      70  66  88 CALM      30.19F
LANCASTER      LGT RAIN  68  66  94 S3        30.19F
WINNSBORO      CLEAR     70  64  83 SE6       30.18F


...EASTERN AND COASTAL SOUTH CAROLINA...

CITY           SKY/WX    TMP DP  RH WIND       PRES   REMARKS
MYRTLE BEACH   PTCLDY    75  66  73 SE9       30.20F
N MYRTLE BCH   CLOUDY    76  69  79 SE6       30.18F
CONWAY         FAIR      64  64 100 CALM      30.19F FOG
MARION         FAIR      68  68 100 CALM      30.19F
HARTSVILLE     FAIR      70  64  83 SE3       30.18F
FLORENCE       CLEAR     70  66  87 CALM      30.18F
DARLINGTON     PTCLDY    72  63  73 SE6       30.20F
CHARLESTON APT PTCLDY    71  68  90 NE3       30.16F
MOUNT PLEASANT LGT RAIN  70  70 100 CALM      30.17F
WALTERBORO     CLEAR     66  64  94 CALM      30.17F
BEAUFORT       CLEAR     73  70  90 E5        30.15F


...EASTERN GEORGIA...

CITY           SKY/WX    TMP DP  RH WIND       PRES   REMARKS
AUGUSTA BUSH F CLEAR     69  65  86 SE6       30.16S
AUGUSTA DANIEL CLEAR     75  65  70 SE7       30.17F
THOMSON        CLEAR     72  69  89 CALM      30.21S
WASHINGTON     FAIR      72  68  88 SE5       30.17S
CLAXTON        FAIR      68  66  94 CALM      30.15F
SYLVANIA       CLEAR     70  69  96 CALM      30.17F
STATESBORO     CLEAR     68  68 100 CALM      30.15F
SAVANNAH       CLEAR     72  68  87 E5        30.15F


...SOUTHERN NORTH CAROLINA...

CITY           SKY/WX    TMP DP  RH WIND       PRES   REMARKS
CHARLOTTE      PTCLDY    70  60  70 CALM      30.20S
MONROE         CLEAR     70  62  76 S3        30.18F
WADESBORO      CLEAR     70  62  77 CALM      30.19S
ROCKINGHAM     CLEAR     72  65  79 S7        30.19F
RUTHERFORDTON  MOCLDY    68  68  98 CALM      30.19F
ASHEVILLE      CLEAR     64  61  90 CALM      30.24F

$$


USA.gov is the U.S. government's official web portal to all federal, state and local government web resources and services.